Погода в Ламиданде

Непал     27°14′56″N   86°41′24″E
темп.,
°C
ветер,
м/с
пор.,
м/с
влажн.,
%
обл.,
%
осадки,
мм/ч
давл.,
гПа
погр.,
м
26 сентября, вс
вс2623:45+18св228788 1.3 101113
02:45+18св2285100 0.1 100918
05:45+18св228368 0.1 101017
08:45+23ююз216919 0.3 1011430
11:45+25юз226690 1.1 10091041
14:45+25юз216670 1.6 10071052
17:45+21ююз118539 3.3 100811
20:45+19св2288100 3.9 101121
27 сентября, пн
пн2723:45+19св228285 4.4 101017
02:45+18св328015 0.0 100918
05:45+18св32797 0.0 101018
08:45+24ю11655 0.0 1011444
11:45+25юз22666 2.0 1010961
14:45+25юз216613 2.3 10071090
17:45+21ююз118569 3.5 100712
20:45+19всв228899 6.4 101125
28 сентября, вт
вт2823:45+19ссв119099 9.7 101118
02:45+19вюв1191100 2.6 101113
05:45+19ссв1189100 3.8 101117
08:45+22юз107895 0.1 1012296
11:45+23юз227654 1.7 1011828
14:45+23юз217543 3.4 1008809
17:45+20зюз119381 5.7 100915
20:45+19всв119094 2.5 101212
29 сентября, ср
ср2923:45+19св218868 4.4 101316
02:45+18всв118550 0.7 101114
05:45+17св118718 0.8 101211
08:45+22юз217711 0.3 1013384
11:45+23юз217765 2.4 1011839
14:45+22юз2284100 5.2 1009493
17:45+19ююв119597 10.1 101020
20:45+19всв1192100 5.3 101220
30 сентября, чт
чт3023:45+18св119479 8.4 101213
02:45+19всв119199 1.5 101112
05:45+18всв119080 2.5 101211
08:45+22юз11787 0.4 1013454
11:45+23юз227854 3.3 1011829
14:45+23ююз228460 4.4 1009542
17:45+19ююв119666 9.2 101015
20:45+19всв119364 2.3 101311